This is the latest recevied weather packets stored in our database for station/object EB2EMZ-3. If no packets are shown the sender has not sent any weather packets the latest 10 day(s).
| Time | Temp. | Humidity | Pressure | Rain* | Wind** | Luminosity | Snow |
|---|---|---|---|---|---|---|---|
| 1777804784 | 18.89° C | 77% | 1016 hPa | 0 mm | - | - | - |
| 1777804484 | 18.89° C | 77% | 1016.1 hPa | 0 mm | - | - | - |
| 1777804184 | 18.89° C | 77% | 1016 hPa | 0 mm | - | - | - |
| 1777803884 | 18.89° C | 77% | 1016.1 hPa | 0 mm | - | - | - |
| 1777803584 | 18.89° C | 77% | 1016 hPa | 0 mm | - | - | - |
| 1777803284 | 18.89° C | 77% | 1016 hPa | 0 mm | - | - | - |
| 1777802984 | 18.89° C | 76% | 1016.1 hPa | 0 mm | - | - | - |
| 1777802684 | 18.89° C | 76% | 1016 hPa | 0 mm | - | - | - |
| 1777802384 | 19.44° C | 75% | 1016 hPa | 0 mm | - | - | - |
| 1777802084 | 19.44° C | 75% | 1015.7 hPa | 0 mm | - | - | - |
| 1777801784 | 20° C | 74% | 1015.6 hPa | 0 mm | - | - | - |
| 1777801484 | 20° C | 73% | 1015.4 hPa | 0 mm | - | - | - |
| 1777801184 | 20° C | 74% | 1015.4 hPa | 0 mm | - | - | - |
| 1777800884 | 20° C | 76% | 1015.3 hPa | 0 mm | - | - | - |
| 1777800584 | 20° C | 76% | 1015.5 hPa | 0 mm | - | - | - |
| 1777800284 | 19.44° C | 77% | 1015.7 hPa | 0 mm | - | - | - |
| 1777799984 | 19.44° C | 77% | 1015.7 hPa | 0 mm | - | - | - |
| 1777799684 | 18.89° C | 78% | 1015.8 hPa | 0 mm | - | - | - |
| 1777799384 | 18.89° C | 80% | 1016 hPa | 0 mm | - | - | - |
| 1777799084 | 18.89° C | 80% | 1015.9 hPa | 0 mm | - | - | - |
| 1777798784 | 18.33° C | 80% | 1015.9 hPa | 0.51 mm | - | - | - |
| 1777798484 | 18.33° C | 82% | 1016.1 hPa | 0.51 mm | - | - | - |
| 1777798184 | 17.78° C | 82% | 1015.9 hPa | 0.51 mm | - | - | - |
| 1777797884 | 17.78° C | 84% | 1015.6 hPa | 1.02 mm | - | - | - |
| 1777797584 | 17.22° C | 85% | 1015.7 hPa | 1.02 mm | - | - | - |
* Rain latest hour (hover to see other rain measurements)
** Current wind speed in m/s (hover to see current wind gust speed)